Year,Month,Day,Hour,Minute,Value (Times are PST for windspeed in km/hr)
2010,11,22,00,00,9.20
2010,11,22,00,01,2.70
2010,11,22,00,02,6.20
2010,11,22,00,03,2.70
2010,11,22,00,04,7.40
2010,11,22,00,05,3.40
2010,11,22,00,06,4.50
2010,11,22,00,07,0.70
2010,11,22,00,08,1.10
2010,11,22,00,09,2.30
2010,11,22,00,10,1.40
2010,11,22,00,11,2.60
2010,11,22,00,12,1.70
2010,11,22,00,13,4.50
2010,11,22,00,14,4.50
2010,11,22,00,15,1.30
2010,11,22,00,16,1.90
2010,11,22,00,17,3.40
2010,11,22,00,18,5.70
2010,11,22,00,19,7.10
2010,11,22,00,20,1.90
2010,11,22,00,21,1.00
2010,11,22,00,22,0.80
2010,11,22,00,23,3.00
2010,11,22,00,24,6.70
2010,11,22,00,25,5.50
2010,11,22,00,26,1.40
2010,11,22,00,27,0.20
2010,11,22,00,28,1.90
2010,11,22,00,29,0.50
2010,11,22,00,30,0.20
2010,11,22,00,31,1.00
2010,11,22,00,32,0.60
2010,11,22,00,33,3.10
2010,11,22,00,34,1.40
2010,11,22,00,35,1.40
2010,11,22,00,36,0.30
2010,11,22,00,37,1.00
2010,11,22,00,38,3.10
2010,11,22,00,39,2.10
2010,11,22,00,40,1.40
2010,11,22,00,41,4.00
2010,11,22,00,42,6.00
2010,11,22,00,43,3.50
2010,11,22,00,44,3.30
2010,11,22,00,45,1.50
2010,11,22,00,46,1.00
2010,11,22,00,47,0.20
2010,11,22,00,48,1.00
2010,11,22,00,49,0.20
2010,11,22,00,50,3.20
2010,11,22,00,51,1.90
2010,11,22,00,52,3.70
2010,11,22,00,53,4.60
2010,11,22,00,54,2.30
2010,11,22,00,55,0.20
2010,11,22,00,56,0.60
2010,11,22,00,57,0.70
2010,11,22,00,58,4.80
2010,11,22,00,59,1.90
2010,11,22,01,00,3.70
2010,11,22,01,01,4.10
2010,11,22,01,02,0.80
2010,11,22,01,03,0.90
2010,11,22,01,04,0.20
2010,11,22,01,05,2.20
2010,11,22,01,06,6.20
2010,11,22,01,07,9.40
2010,11,22,01,08,2.80
2010,11,22,01,09,1.00
2010,11,22,01,10,0.00
2010,11,22,01,11,0.70
2010,11,22,01,12,1.20
2010,11,22,01,13,0.40
2010,11,22,01,14,0.20
2010,11,22,01,15,0.00
2010,11,22,01,16,0.60
2010,11,22,01,17,1.60
2010,11,22,01,18,2.60
2010,11,22,01,19,1.80
2010,11,22,01,20,1.10
2010,11,22,01,21,1.00
2010,11,22,01,22,1.30
2010,11,22,01,23,0.90
2010,11,22,01,24,0.20
2010,11,22,01,25,0.20
2010,11,22,01,26,1.20
2010,11,22,01,27,1.70
2010,11,22,01,28,3.10
2010,11,22,01,29,2.60
2010,11,22,01,30,0.40
2010,11,22,01,31,4.80
2010,11,22,01,32,2.60
2010,11,22,01,33,4.90
2010,11,22,01,34,5.10
2010,11,22,01,35,0.90
2010,11,22,01,36,0.80
2010,11,22,01,37,2.70
2010,11,22,01,38,1.90
2010,11,22,01,39,3.70
2010,11,22,01,40,2.90
2010,11,22,01,41,4.80
2010,11,22,01,42,0.00
2010,11,22,01,43,0.00
2010,11,22,01,44,1.00
2010,11,22,01,45,2.90
2010,11,22,01,46,0.20
2010,11,22,01,47,0.10
2010,11,22,01,48,0.60
2010,11,22,01,49,1.30
2010,11,22,01,50,0.60
2010,11,22,01,51,0.40
2010,11,22,01,52,0.00
2010,11,22,01,53,2.00
2010,11,22,01,54,0.00
2010,11,22,01,55,0.10
2010,11,22,01,56,0.60
2010,11,22,01,57,8.50
2010,11,22,01,58,0.80
2010,11,22,01,59,0.10
2010,11,22,02,00,0.70
2010,11,22,02,01,0.60
2010,11,22,02,02,0.00
2010,11,22,02,03,0.30
2010,11,22,02,04,0.20
2010,11,22,02,05,3.20
2010,11,22,02,06,0.20
2010,11,22,02,07,0.30
2010,11,22,02,08,2.30
2010,11,22,02,09,2.40
2010,11,22,02,10,1.10
2010,11,22,02,11,3.10
2010,11,22,02,12,1.20
2010,11,22,02,13,0.60
2010,11,22,02,14,0.50
2010,11,22,02,15,8.10
2010,11,22,02,16,4.60
2010,11,22,02,17,5.10
2010,11,22,02,18,2.70
2010,11,22,02,19,0.30
2010,11,22,02,20,0.00
2010,11,22,02,21,0.00
2010,11,22,02,22,1.90
2010,11,22,02,23,4.50
2010,11,22,02,24,0.10
2010,11,22,02,25,0.20
2010,11,22,02,26,0.00
2010,11,22,02,27,0.20
2010,11,22,02,28,1.60
2010,11,22,02,29,2.50
2010,11,22,02,30,0.20
2010,11,22,02,31,0.60
2010,11,22,02,32,1.90
2010,11,22,02,33,4.60
2010,11,22,02,34,4.10
2010,11,22,02,35,2.00
2010,11,22,02,36,0.40
2010,11,22,02,37,0.30
2010,11,22,02,38,0.00
2010,11,22,02,39,1.10
2010,11,22,02,40,0.00
2010,11,22,02,41,0.00
2010,11,22,02,42,0.00
2010,11,22,02,43,0.00
2010,11,22,02,44,0.40
2010,11,22,02,45,0.50
2010,11,22,02,46,1.30
2010,11,22,02,47,0.50
2010,11,22,02,48,0.20
2010,11,22,02,49,0.60
2010,11,22,02,50,2.80
2010,11,22,02,51,1.70
2010,11,22,02,52,3.70
2010,11,22,02,53,3.50
2010,11,22,02,54,2.70
2010,11,22,02,55,4.70
2010,11,22,02,56,2.20
2010,11,22,02,57,0.50
2010,11,22,02,58,1.50
2010,11,22,02,59,0.10
2010,11,22,03,00,0.90
2010,11,22,03,01,0.60
2010,11,22,03,02,0.00
2010,11,22,03,03,0.10
2010,11,22,03,04,0.60
2010,11,22,03,05,2.40
2010,11,22,03,06,2.20
2010,11,22,03,07,4.20
2010,11,22,03,08,1.00
2010,11,22,03,09,1.00
2010,11,22,03,10,3.70
2010,11,22,03,11,2.60
2010,11,22,03,12,3.20
2010,11,22,03,13,0.50
2010,11,22,03,14,0.90
2010,11,22,03,15,0.70
2010,11,22,03,16,1.10
2010,11,22,03,17,0.20
2010,11,22,03,18,1.40
2010,11,22,03,19,0.10
2010,11,22,03,20,0.90
2010,11,22,03,21,1.40
2010,11,22,03,22,0.00
2010,11,22,03,23,0.20
2010,11,22,03,24,0.00
2010,11,22,03,25,0.80
2010,11,22,03,26,1.50
2010,11,22,03,27,2.00
2010,11,22,03,28,5.10
2010,11,22,03,29,1.60
2010,11,22,03,30,0.70
2010,11,22,03,31,0.60
2010,11,22,03,32,1.20
2010,11,22,03,33,0.70
2010,11,22,03,34,0.00
2010,11,22,03,35,0.00
2010,11,22,03,36,0.60
2010,11,22,03,37,0.60
2010,11,22,03,38,0.10
2010,11,22,03,39,0.60
2010,11,22,03,40,0.60
2010,11,22,03,41,2.90
2010,11,22,03,42,2.70
2010,11,22,03,43,1.00
2010,11,22,03,44,0.60
2010,11,22,03,45,1.60
2010,11,22,03,46,0.20
2010,11,22,03,47,1.70
2010,11,22,03,48,3.40
2010,11,22,03,49,2.50
2010,11,22,03,50,4.90
2010,11,22,03,51,1.40
2010,11,22,03,52,1.80
2010,11,22,03,53,0.80
2010,11,22,03,54,0.70
2010,11,22,03,55,0.70
2010,11,22,03,56,3.90
2010,11,22,03,57,0.80
2010,11,22,03,58,1.20
2010,11,22,03,59,1.00
2010,11,22,04,00,3.30
2010,11,22,04,01,3.10
2010,11,22,04,02,4.20
2010,11,22,04,03,1.20
2010,11,22,04,04,1.90
2010,11,22,04,05,4.10
2010,11,22,04,06,4.10
2010,11,22,04,07,5.00
2010,11,22,04,08,4.20
2010,11,22,04,09,4.60
2010,11,22,04,10,2.80
2010,11,22,04,11,0.10
2010,11,22,04,12,0.40
2010,11,22,04,13,1.20
2010,11,22,04,14,3.00
2010,11,22,04,15,0.20
2010,11,22,04,16,0.70
2010,11,22,04,17,2.40
2010,11,22,04,18,1.90
2010,11,22,04,19,3.40
2010,11,22,04,20,2.50
2010,11,22,04,21,4.20
2010,11,22,04,22,4.80
2010,11,22,04,23,1.80
2010,11,22,04,24,5.20
2010,11,22,04,25,8.80
2010,11,22,04,26,5.00
2010,11,22,04,27,4.40
2010,11,22,04,28,4.50
2010,11,22,04,29,3.50
2010,11,22,04,30,4.40
2010,11,22,04,31,2.70
2010,11,22,04,32,2.50
2010,11,22,04,33,3.60
2010,11,22,04,34,5.50
2010,11,22,04,35,4.10
2010,11,22,04,36,3.50
2010,11,22,04,37,1.90
2010,11,22,04,38,0.20
2010,11,22,04,39,0.20
2010,11,22,04,40,1.90
2010,11,22,04,41,2.70
2010,11,22,04,42,2.30
2010,11,22,04,43,1.00
2010,11,22,04,44,4.20
2010,11,22,04,45,4.00
2010,11,22,04,46,2.70
2010,11,22,04,47,2.30
2010,11,22,04,48,0.20
2010,11,22,04,49,0.30
2010,11,22,04,50,1.20
2010,11,22,04,51,2.90
2010,11,22,04,52,1.80
2010,11,22,04,53,0.00
2010,11,22,04,54,2.70
2010,11,22,04,55,2.20
2010,11,22,04,56,6.80
2010,11,22,04,57,7.20
2010,11,22,04,58,2.50
2010,11,22,04,59,8.80
2010,11,22,05,00,8.10
2010,11,22,05,01,3.50
2010,11,22,05,02,6.20
2010,11,22,05,03,6.20
2010,11,22,05,04,1.10
2010,11,22,05,05,1.10
2010,11,22,05,06,1.20
2010,11,22,05,07,7.40
2010,11,22,05,08,2.60
2010,11,22,05,09,3.50
2010,11,22,05,10,1.20
2010,11,22,05,11,3.40
2010,11,22,05,12,4.60
2010,11,22,05,13,4.60
2010,11,22,05,14,4.50
2010,11,22,05,15,1.10
2010,11,22,05,16,2.40
2010,11,22,05,17,2.40
2010,11,22,05,18,5.40
2010,11,22,05,19,4.70
2010,11,22,05,20,7.60
2010,11,22,05,21,11.60
2010,11,22,05,22,8.40
2010,11,22,05,23,4.40
2010,11,22,05,24,3.70
2010,11,22,05,25,3.00
2010,11,22,05,26,3.50
2010,11,22,05,27,5.60
2010,11,22,05,28,7.10
2010,11,22,05,29,2.90
2010,11,22,05,30,6.40
2010,11,22,05,31,0.30
2010,11,22,05,32,9.20
2010,11,22,05,33,5.10
2010,11,22,05,34,6.40
2010,11,22,05,35,1.80
2010,11,22,05,36,5.30
2010,11,22,05,37,5.50
2010,11,22,05,38,6.30
2010,11,22,05,39,11.50
2010,11,22,05,40,7.90
2010,11,22,05,41,4.10
2010,11,22,05,42,2.70
2010,11,22,05,43,2.70
2010,11,22,05,44,0.30
2010,11,22,05,45,2.40
2010,11,22,05,46,1.10
2010,11,22,05,47,5.20
2010,11,22,05,48,5.60
2010,11,22,05,49,3.50
2010,11,22,05,50,4.80
2010,11,22,05,51,9.90
2010,11,22,05,52,10.40
2010,11,22,05,53,4.00
2010,11,22,05,54,2.60
2010,11,22,05,55,2.50
2010,11,22,05,56,4.40
2010,11,22,05,57,4.30
2010,11,22,05,58,3.70
2010,11,22,05,59,6.50
2010,11,22,06,00,8.40
2010,11,22,06,01,2.80
2010,11,22,06,02,6.20
2010,11,22,06,03,0.90
2010,11,22,06,04,3.90
2010,11,22,06,05,6.10
2010,11,22,06,06,3.60
2010,11,22,06,07,5.80
2010,11,22,06,08,5.50
2010,11,22,06,09,8.00
2010,11,22,06,10,5.40
2010,11,22,06,11,6.60
2010,11,22,06,12,2.10
2010,11,22,06,13,7.50
2010,11,22,06,14,2.40
2010,11,22,06,15,3.90
2010,11,22,06,16,8.20
2010,11,22,06,17,2.20
2010,11,22,06,18,1.80
2010,11,22,06,19,8.70
2010,11,22,06,20,5.00
2010,11,22,06,21,3.60
2010,11,22,06,22,3.80
2010,11,22,06,23,1.10
2010,11,22,06,24,2.00
2010,11,22,06,25,2.70
2010,11,22,06,26,7.30
2010,11,22,06,27,4.30
2010,11,22,06,28,7.20
2010,11,22,06,29,9.10
2010,11,22,06,30,0.50
2010,11,22,06,31,5.90
2010,11,22,06,32,4.40
2010,11,22,06,33,3.60
2010,11,22,06,34,9.20
2010,11,22,06,35,2.90
2010,11,22,06,36,9.70
2010,11,22,06,37,8.40
2010,11,22,06,38,7.90
2010,11,22,06,39,7.60
2010,11,22,06,40,13.40
2010,11,22,06,41,9.30
2010,11,22,06,42,10.80
2010,11,22,06,43,6.10
2010,11,22,06,44,5.70
2010,11,22,06,45,3.50
2010,11,22,06,46,6.40
2010,11,22,06,47,8.50
2010,11,22,06,48,5.60
2010,11,22,06,49,8.10
2010,11,22,06,50,6.10
2010,11,22,06,51,4.50
2010,11,22,06,52,19.80
2010,11,22,06,53,8.70
2010,11,22,06,54,13.70
2010,11,22,06,55,8.60
2010,11,22,06,56,6.50
2010,11,22,06,57,6.60
2010,11,22,06,58,5.00
2010,11,22,06,59,11.00
2010,11,22,07,00,5.70
2010,11,22,07,01,6.30
2010,11,22,07,02,8.50
2010,11,22,07,03,3.70
2010,11,22,07,04,10.00
2010,11,22,07,05,9.10
2010,11,22,07,06,6.00
2010,11,22,07,07,5.40
2010,11,22,07,08,2.80
2010,11,22,07,09,2.50
2010,11,22,07,10,8.00
2010,11,22,07,11,11.20
2010,11,22,07,12,9.30
2010,11,22,07,13,6.10
2010,11,22,07,14,7.60
2010,11,22,07,15,6.80
2010,11,22,07,16,18.80
2010,11,22,07,17,15.70
2010,11,22,07,18,10.20
2010,11,22,07,19,13.70
2010,11,22,07,20,9.40
2010,11,22,07,21,12.00
2010,11,22,07,22,8.80
2010,11,22,07,23,13.00
2010,11,22,07,24,9.90
2010,11,22,07,25,22.10
2010,11,22,07,26,15.00
2010,11,22,07,27,6.80
2010,11,22,07,28,14.10
2010,11,22,07,29,18.80
2010,11,22,07,30,15.40
2010,11,22,07,31,5.30
2010,11,22,07,32,11.00
2010,11,22,07,33,16.10
2010,11,22,07,34,16.30
2010,11,22,07,35,10.10
2010,11,22,07,36,19.90
2010,11,22,07,37,20.60
2010,11,22,07,38,16.60
2010,11,22,07,39,11.30
2010,11,22,07,40,11.30
2010,11,22,07,41,15.80
2010,11,22,07,42,13.60
2010,11,22,07,43,10.80
2010,11,22,07,44,5.60
2010,11,22,07,45,12.90
2010,11,22,07,46,11.90
2010,11,22,07,47,14.00
2010,11,22,07,48,10.30
2010,11,22,07,49,12.90
2010,11,22,07,50,16.90
2010,11,22,07,51,16.90
2010,11,22,07,52,17.30
2010,11,22,07,53,11.20
2010,11,22,07,54,14.20
2010,11,22,07,55,19.90
2010,11,22,07,56,19.50
2010,11,22,07,57,12.40
2010,11,22,07,58,15.10
2010,11,22,07,59,11.30
2010,11,22,08,00,21.00
2010,11,22,08,01,11.90
2010,11,22,08,02,11.60
2010,11,22,08,03,17.60
2010,11,22,08,04,17.30
2010,11,22,08,05,16.40
2010,11,22,08,06,12.80
2010,11,22,08,07,12.20
2010,11,22,08,08,19.20
2010,11,22,08,09,13.20
2010,11,22,08,10,9.80
2010,11,22,08,11,12.20
2010,11,22,08,12,20.60
2010,11,22,08,13,15.00
2010,11,22,08,14,12.90
2010,11,22,08,15,16.10
2010,11,22,08,16,17.20
2010,11,22,08,17,17.30
2010,11,22,08,18,11.70
2010,11,22,08,19,15.70
2010,11,22,08,20,15.30
2010,11,22,08,21,14.60
2010,11,22,08,22,13.60
2010,11,22,08,23,16.10
2010,11,22,08,24,18.70
2010,11,22,08,25,20.10
2010,11,22,08,26,18.40
2010,11,22,08,27,18.60
2010,11,22,08,28,11.00
2010,11,22,08,29,18.70
2010,11,22,08,30,14.30
2010,11,22,08,31,16.10
2010,11,22,08,32,16.90
2010,11,22,08,33,18.10
2010,11,22,08,34,16.80
2010,11,22,08,35,19.10
2010,11,22,08,36,15.30
2010,11,22,08,37,16.30
2010,11,22,08,38,12.20
2010,11,22,08,39,17.00
2010,11,22,08,40,15.40
2010,11,22,08,41,17.10
2010,11,22,08,42,18.20
2010,11,22,08,43,21.50
2010,11,22,08,44,18.10
2010,11,22,08,45,12.40
2010,11,22,08,46,15.20
2010,11,22,08,47,19.30
2010,11,22,08,48,20.70
2010,11,22,08,49,19.20
2010,11,22,08,50,14.20
2010,11,22,08,51,13.60
2010,11,22,08,52,16.70
2010,11,22,08,53,12.30
2010,11,22,08,54,11.70
2010,11,22,08,55,20.00
2010,11,22,08,56,11.20
2010,11,22,08,57,14.90
2010,11,22,08,58,22.00
2010,11,22,08,59,9.90
2010,11,22,09,00,6.70
2010,11,22,09,01,10.70
2010,11,22,09,02,12.20
2010,11,22,09,03,17.30
2010,11,22,09,04,12.90
2010,11,22,09,05,9.20
2010,11,22,09,06,14.90
2010,11,22,09,07,2.40
2010,11,22,09,08,9.30
2010,11,22,09,09,6.30
2010,11,22,09,10,6.70
2010,11,22,09,11,10.30
2010,11,22,09,12,14.40
2010,11,22,09,13,3.60
2010,11,22,09,14,4.30
2010,11,22,09,15,7.70
2010,11,22,09,16,8.40
2010,11,22,09,17,7.90
2010,11,22,09,18,15.30
2010,11,22,09,19,10.30
2010,11,22,09,20,13.30
2010,11,22,09,21,9.70
2010,11,22,09,22,8.40
2010,11,22,09,23,2.40
2010,11,22,09,24,6.90
2010,11,22,09,25,7.80
2010,11,22,09,26,13.70
2010,11,22,09,27,8.10
2010,11,22,09,28,10.70
2010,11,22,09,29,4.60
2010,11,22,09,30,1.20
2010,11,22,09,31,3.20
2010,11,22,09,32,2.80
2010,11,22,09,33,8.80
2010,11,22,09,34,3.50
2010,11,22,09,35,9.00
2010,11,22,09,36,6.80
2010,11,22,09,37,6.50
2010,11,22,09,38,3.10
2010,11,22,09,39,6.60
2010,11,22,09,40,7.40
2010,11,22,09,41,5.90
2010,11,22,09,42,6.20
2010,11,22,09,43,4.80
2010,11,22,09,44,3.80
2010,11,22,09,45,3.90
2010,11,22,09,46,6.00
2010,11,22,09,47,7.60
2010,11,22,09,48,12.20
2010,11,22,09,49,7.90
2010,11,22,09,50,8.40
2010,11,22,09,51,6.70
2010,11,22,09,52,8.40
2010,11,22,09,53,13.10
2010,11,22,09,54,9.40
2010,11,22,09,55,16.50
2010,11,22,09,56,11.30
2010,11,22,09,57,13.20
2010,11,22,09,58,12.10
2010,11,22,09,59,8.60
2010,11,22,10,00,9.70
2010,11,22,10,01,17.90
2010,11,22,10,02,15.20
2010,11,22,10,03,12.30
2010,11,22,10,04,18.10
2010,11,22,10,05,13.10
2010,11,22,10,06,5.70
2010,11,22,10,07,7.80
2010,11,22,10,08,15.90
2010,11,22,10,09,11.60
2010,11,22,10,10,11.30
2010,11,22,10,11,13.60
2010,11,22,10,12,14.20
2010,11,22,10,13,11.00
2010,11,22,10,14,9.20
2010,11,22,10,15,13.90
2010,11,22,10,16,17.10
2010,11,22,10,17,9.40
2010,11,22,10,18,10.40
2010,11,22,10,19,10.50
2010,11,22,10,20,16.40
2010,11,22,10,21,8.20
2010,11,22,10,22,10.10
2010,11,22,10,23,13.00
2010,11,22,10,24,17.80
2010,11,22,10,25,10.80
2010,11,22,10,26,13.50
2010,11,22,10,27,12.10
2010,11,22,10,28,8.00
2010,11,22,10,29,7.20
2010,11,22,10,30,12.50
2010,11,22,10,31,10.50
2010,11,22,10,32,9.00
2010,11,22,10,33,12.20
2010,11,22,10,34,15.80
2010,11,22,10,35,17.60
2010,11,22,10,36,8.30
2010,11,22,10,37,8.10
2010,11,22,10,38,10.00
2010,11,22,10,39,9.90
2010,11,22,10,40,8.20
2010,11,22,10,41,10.40
2010,11,22,10,42,14.80
2010,11,22,10,43,15.40
2010,11,22,10,44,9.10
2010,11,22,10,45,13.80
2010,11,22,10,46,13.50
2010,11,22,10,47,15.20
2010,11,22,10,48,12.20
2010,11,22,10,49,9.10
2010,11,22,10,50,16.50
2010,11,22,10,51,18.30
2010,11,22,10,52,13.50
2010,11,22,10,53,9.30
2010,11,22,10,54,10.40
2010,11,22,10,55,12.30
2010,11,22,10,56,15.80
2010,11,22,10,57,9.70
2010,11,22,10,58,13.70
2010,11,22,10,59,15.60
2010,11,22,11,00,16.80
2010,11,22,11,01,17.20
2010,11,22,11,02,16.90
2010,11,22,11,03,11.90
2010,11,22,11,04,19.90
2010,11,22,11,05,16.50
2010,11,22,11,06,21.00
2010,11,22,11,07,14.00
2010,11,22,11,08,13.30
2010,11,22,11,09,18.90
2010,11,22,11,10,18.20
2010,11,22,11,11,11.00
2010,11,22,11,12,9.50
2010,11,22,11,13,12.40
2010,11,22,11,14,12.10
2010,11,22,11,15,15.50
2010,11,22,11,16,14.30
2010,11,22,11,17,17.00
2010,11,22,11,18,11.50
2010,11,22,11,19,13.00
2010,11,22,11,20,14.40
2010,11,22,11,21,20.10
2010,11,22,11,22,16.70
2010,11,22,11,23,17.60
2010,11,22,11,24,20.50
2010,11,22,11,25,17.30
2010,11,22,11,26,23.10
2010,11,22,11,27,24.70
2010,11,22,11,28,19.60
2010,11,22,11,29,20.10
2010,11,22,11,30,13.80
2010,11,22,11,31,18.70
2010,11,22,11,32,17.50
2010,11,22,11,33,14.50
2010,11,22,11,34,23.40
2010,11,22,11,35,17.80
2010,11,22,11,36,16.70
2010,11,22,11,37,22.50
2010,11,22,11,38,15.40
2010,11,22,11,39,18.50
2010,11,22,11,40,17.50
2010,11,22,11,41,21.70
2010,11,22,11,42,21.80
2010,11,22,11,43,24.10
2010,11,22,11,44,17.30
2010,11,22,11,45,14.80
2010,11,22,11,46,16.30
2010,11,22,11,47,18.80
2010,11,22,11,48,23.10
2010,11,22,11,49,20.30
2010,11,22,11,50,23.30
2010,11,22,11,51,22.40
2010,11,22,11,52,16.30
2010,11,22,11,53,15.30
2010,11,22,11,54,11.50
2010,11,22,11,55,21.40
2010,11,22,11,56,18.20
2010,11,22,11,57,20.70
2010,11,22,11,58,18.20
2010,11,22,11,59,22.00
2010,11,22,12,00,21.80
2010,11,22,12,01,19.60
2010,11,22,12,02,23.30
2010,11,22,12,03,16.30
2010,11,22,12,04,22.50
2010,11,22,12,05,12.90
2010,11,22,12,06,18.20
2010,11,22,12,07,23.70
2010,11,22,12,08,23.70
2010,11,22,12,09,17.50
2010,11,22,12,10,19.20
2010,11,22,12,11,13.90
2010,11,22,12,12,15.60
2010,11,22,12,13,21.70
2010,11,22,12,14,23.30
2010,11,22,12,15,17.80
2010,11,22,12,16,19.80
2010,11,22,12,17,17.50
2010,11,22,12,18,23.30
2010,11,22,12,19,18.90
2010,11,22,12,20,21.30
2010,11,22,12,21,24.70
2010,11,22,12,22,20.20
2010,11,22,12,23,21.20
2010,11,22,12,24,23.20
2010,11,22,12,25,26.00
2010,11,22,12,26,21.20
2010,11,22,12,27,24.40
2010,11,22,12,28,23.80
2010,11,22,12,29,17.10
2010,11,22,12,30,20.40
2010,11,22,12,31,18.30
2010,11,22,12,32,17.50
2010,11,22,12,33,20.30
2010,11,22,12,34,19.60
2010,11,22,12,35,13.00
2010,11,22,12,36,17.80
2010,11,22,12,37,20.00
2010,11,22,12,38,24.30
2010,11,22,12,39,16.50
2010,11,22,12,40,25.20
2010,11,22,12,41,22.20
2010,11,22,12,42,13.10
2010,11,22,12,43,15.80
2010,11,22,12,44,17.00
2010,11,22,12,45,15.90
2010,11,22,12,46,19.00
2010,11,22,12,47,20.50
2010,11,22,12,48,15.60
2010,11,22,12,49,20.40
2010,11,22,12,50,23.00
2010,11,22,12,51,17.90
2010,11,22,12,52,16.50
2010,11,22,12,53,20.50
2010,11,22,12,54,17.10
2010,11,22,12,55,11.50
2010,11,22,12,56,13.40
2010,11,22,12,57,20.00
2010,11,22,12,58,17.60
2010,11,22,12,59,16.30
2010,11,22,13,00,26.70
2010,11,22,13,01,26.70
2010,11,22,13,02,33.20
2010,11,22,13,03,23.40
2010,11,22,13,04,24.00
2010,11,22,13,05,17.50
2010,11,22,13,06,22.80
2010,11,22,13,07,21.10
2010,11,22,13,08,21.80
2010,11,22,13,09,18.60
2010,11,22,13,10,21.30
2010,11,22,13,11,20.40
2010,11,22,13,12,20.70
2010,11,22,13,13,18.60
2010,11,22,13,14,22.30
2010,11,22,13,15,23.10
2010,11,22,13,16,28.00
2010,11,22,13,17,30.00
2010,11,22,13,18,27.60
2010,11,22,13,19,22.80
2010,11,22,13,20,20.90
2010,11,22,13,21,26.20
2010,11,22,13,22,18.30
2010,11,22,13,23,25.60
2010,11,22,13,24,20.80
2010,11,22,13,25,17.20
2010,11,22,13,26,17.50
2010,11,22,13,27,28.40
2010,11,22,13,28,30.00
2010,11,22,13,29,24.10
2010,11,22,13,30,28.60
2010,11,22,13,31,19.70
2010,11,22,13,32,21.20
2010,11,22,13,33,16.00
2010,11,22,13,34,25.40
2010,11,22,13,35,19.70
2010,11,22,13,36,12.30
2010,11,22,13,37,20.00
2010,11,22,13,38,16.80
2010,11,22,13,39,20.70
2010,11,22,13,40,21.20
2010,11,22,13,41,16.90
2010,11,22,13,42,12.60
2010,11,22,13,43,14.40
2010,11,22,13,44,18.20
2010,11,22,13,45,18.50
2010,11,22,13,46,17.10
2010,11,22,13,47,14.30
2010,11,22,13,48,10.10
2010,11,22,13,49,16.30
2010,11,22,13,50,14.70
2010,11,22,13,51,20.40
2010,11,22,13,52,14.90
2010,11,22,13,53,16.20
2010,11,22,13,54,18.30
2010,11,22,13,55,27.60
2010,11,22,13,56,26.30
2010,11,22,13,57,18.70
2010,11,22,13,58,19.60
2010,11,22,13,59,16.30
2010,11,22,14,00,14.90
2010,11,22,14,01,14.80
2010,11,22,14,02,18.30
2010,11,22,14,03,21.10
2010,11,22,14,04,24.10
2010,11,22,14,05,22.90
2010,11,22,14,06,19.20
2010,11,22,14,07,17.60
2010,11,22,14,08,23.50
2010,11,22,14,09,20.30
2010,11,22,14,10,18.70
2010,11,22,14,11,16.30
2010,11,22,14,12,17.50
2010,11,22,14,13,20.10
2010,11,22,14,14,19.00
2010,11,22,14,15,21.10
2010,11,22,14,16,28.50
2010,11,22,14,17,22.40
2010,11,22,14,18,24.20
2010,11,22,14,19,18.10
2010,11,22,14,20,25.20
2010,11,22,14,21,15.10
2010,11,22,14,22,28.70
2010,11,22,14,23,24.90
2010,11,22,14,24,26.50
2010,11,22,14,25,21.90
2010,11,22,14,26,17.90
2010,11,22,14,27,11.80
2010,11,22,14,28,17.80
2010,11,22,14,29,19.50
2010,11,22,14,30,20.00
2010,11,22,14,31,15.50
2010,11,22,14,32,19.20
2010,11,22,14,33,24.50
2010,11,22,14,34,15.10
2010,11,22,14,35,20.20
2010,11,22,14,36,17.70
2010,11,22,14,37,22.80
2010,11,22,14,38,20.80
2010,11,22,14,39,26.00
2010,11,22,14,40,23.70
2010,11,22,14,41,15.50
2010,11,22,14,42,21.90
2010,11,22,14,43,20.60
2010,11,22,14,44,17.50
2010,11,22,14,45,20.80
2010,11,22,14,46,28.80
2010,11,22,14,47,26.50
2010,11,22,14,48,22.40
2010,11,22,14,49,23.90
2010,11,22,14,50,19.70
2010,11,22,14,51,19.20
2010,11,22,14,52,19.80
2010,11,22,14,53,22.50
2010,11,22,14,54,21.80
2010,11,22,14,55,25.30
2010,11,22,14,56,23.20
2010,11,22,14,57,25.20
2010,11,22,14,58,20.50
2010,11,22,14,59,21.60
2010,11,22,15,00,28.40
2010,11,22,15,01,25.00
2010,11,22,15,02,26.60
2010,11,22,15,03,24.30
2010,11,22,15,04,21.10
2010,11,22,15,05,23.50
2010,11,22,15,06,18.30
2010,11,22,15,07,18.40
2010,11,22,15,08,20.90
2010,11,22,15,09,28.10
2010,11,22,15,10,15.70
2010,11,22,15,11,20.80
2010,11,22,15,12,19.80
2010,11,22,15,13,22.90
2010,11,22,15,14,16.70
2010,11,22,15,15,18.60
2010,11,22,15,16,19.90
2010,11,22,15,17,26.20
2010,11,22,15,18,16.80
2010,11,22,15,19,21.60
2010,11,22,15,20,17.80
2010,11,22,15,21,20.50
2010,11,22,15,22,20.80
2010,11,22,15,23,18.70
2010,11,22,15,24,20.50
2010,11,22,15,25,20.80
2010,11,22,15,26,20.60
2010,11,22,15,27,21.50
2010,11,22,15,28,22.80
2010,11,22,15,29,16.10
2010,11,22,15,30,15.00
2010,11,22,15,31,19.40
2010,11,22,15,32,19.50
2010,11,22,15,33,24.00
2010,11,22,15,34,16.10
2010,11,22,15,35,19.40
2010,11,22,15,36,18.60
2010,11,22,15,37,21.50
2010,11,22,15,38,13.40
2010,11,22,15,39,21.50
2010,11,22,15,40,19.80
2010,11,22,15,41,23.50
2010,11,22,15,42,16.50
2010,11,22,15,43,22.00
2010,11,22,15,44,20.20
2010,11,22,15,45,17.50
2010,11,22,15,46,17.00
2010,11,22,15,47,14.40
2010,11,22,15,48,25.60
2010,11,22,15,49,20.60
2010,11,22,15,50,25.00
2010,11,22,15,51,23.40
2010,11,22,15,52,24.70
2010,11,22,15,53,17.20
2010,11,22,15,54,15.40
2010,11,22,15,55,19.80
2010,11,22,15,56,21.10
2010,11,22,15,57,21.50
2010,11,22,15,58,20.40
2010,11,22,15,59,18.30
2010,11,22,16,00,20.40
2010,11,22,16,01,23.00
2010,11,22,16,02,21.10
2010,11,22,16,03,23.70
2010,11,22,16,04,18.30
2010,11,22,16,05,16.60
2010,11,22,16,06,21.60
2010,11,22,16,07,19.10
2010,11,22,16,08,17.50
2010,11,22,16,09,22.70
2010,11,22,16,10,31.20
2010,11,22,16,11,28.00
2010,11,22,16,12,22.00
2010,11,22,16,13,22.50
2010,11,22,16,14,19.70
2010,11,22,16,15,24.30
2010,11,22,16,16,15.20
2010,11,22,16,17,20.60
2010,11,22,16,18,19.50
2010,11,22,16,19,20.40
2010,11,22,16,20,29.40
2010,11,22,16,21,23.60
2010,11,22,16,22,20.60
2010,11,22,16,23,33.30
2010,11,22,16,24,20.10
2010,11,22,16,25,26.60
2010,11,22,16,26,23.20
2010,11,22,16,27,16.50
2010,11,22,16,28,25.40
2010,11,22,16,29,16.80
2010,11,22,16,30,24.20
2010,11,22,16,31,22.40
2010,11,22,16,32,20.50
2010,11,22,16,33,23.10
2010,11,22,16,34,20.30
2010,11,22,16,35,20.70
2010,11,22,16,36,26.30
2010,11,22,16,37,21.00
2010,11,22,16,38,27.10
2010,11,22,16,39,29.40
2010,11,22,16,40,21.50
2010,11,22,16,41,23.50
2010,11,22,16,42,21.60
2010,11,22,16,43,24.10
2010,11,22,16,44,29.40
2010,11,22,16,45,26.60
2010,11,22,16,46,16.70
2010,11,22,16,47,24.50
2010,11,22,16,48,32.90
2010,11,22,16,49,24.70
2010,11,22,16,50,23.70
2010,11,22,16,51,20.70
2010,11,22,16,52,35.30
2010,11,22,16,53,27.90
2010,11,22,16,54,28.30
2010,11,22,16,55,34.40
2010,11,22,16,56,25.40
2010,11,22,16,57,20.30
2010,11,22,16,58,24.80
2010,11,22,16,59,18.80
2010,11,22,17,00,16.00
2010,11,22,17,01,20.60
2010,11,22,17,02,21.20
2010,11,22,17,03,23.10
2010,11,22,17,04,26.50
2010,11,22,17,05,21.50
2010,11,22,17,06,22.20
2010,11,22,17,07,26.50
2010,11,22,17,08,19.10
2010,11,22,17,09,24.10
2010,11,22,17,10,23.80
2010,11,22,17,11,18.40
2010,11,22,17,12,20.60
2010,11,22,17,13,22.10
2010,11,22,17,14,23.00
2010,11,22,17,15,21.90
2010,11,22,17,16,22.90
2010,11,22,17,17,18.30
2010,11,22,17,18,20.50
2010,11,22,17,19,22.00
2010,11,22,17,20,19.00
2010,11,22,17,21,20.30
2010,11,22,17,22,27.00
2010,11,22,17,23,25.80
2010,11,22,17,24,16.40
2010,11,22,17,25,21.20
2010,11,22,17,26,23.30
2010,11,22,17,27,23.20
2010,11,22,17,28,20.30
2010,11,22,17,29,22.40
2010,11,22,17,30,20.30
2010,11,22,17,31,26.40
2010,11,22,17,32,21.30
2010,11,22,17,33,20.30
2010,11,22,17,34,16.00
2010,11,22,17,35,20.80
2010,11,22,17,36,27.70
2010,11,22,17,37,20.20
2010,11,22,17,38,26.80
2010,11,22,17,39,25.40
2010,11,22,17,40,25.90